Location: Julian California
(33.0790°N, 116.6010°W)
Time: 21:12:30
(UTC-07:00)

IGS 5A - Pass Details

Date: 12 July 2018
Orbit: 585 x 588 km, 97.7° (Epoch: 19 July)

Event Time Altitude Azimuth Distance (km) Brightness Sun altitude
Exits shadow 22:48:02 47° 347° (NNW) 777 4.3 -27.6°
Drops below altitude 10° 22:51:02 10° 348° (NNW) 1,912 6.9 -28.0°
Sets 22:53:12 0° 349° (NNW) 2,817 8.0 -28.2°
